Regional Weather Roundup
Issued by NWS

Home | Current Version | Previous Version | Text Only | Print | Product List | Glossary On
Versions: 1 2 3 4 5 6 7 8 9 10 11 12 13 14 15 16 17 18 19 20 21 22 23 24 25 26 27 28 29 30 31 32 33 34 35 36 37 38 39 40 41 42 43 44 45 46 47 48 49 50
000
ASUS43 KLMK 301510
RWRKY
KENTUCKY REGIONAL WEATHER ROUNDUP
NATIONAL WEATHER SERVICE LOUISVILLE KY
1100 AM EDT FRI SEP 30 2016

NOTE "FAIR" INDICATES FEW OR NO CLOUDS BELOW 12,000 FEET
WITH NO SIGNIFICANT WEATHER AND/OR OBSTRUCTIONS TO VISIBILITY.

KYZ001>023-026-027-061>063-070>075-301600-
WESTERN AND SOUTH CENTRAL KENTUCKY

CITY           SKY/WX    TMP DP  RH WIND       PRES   REMARKS
PADUCAH        CLOUDY    63  56  78 NW6       30.08R
HENDERSON      PTSUNNY   61  55  82 NW6       30.03F
OWENSBORO      CLOUDY   N/A N/A N/A N9        30.04R
HOPKINSVILLE   PTSUNNY   63  57  82 W14       30.05S
BOWLING GREEN  CLOUDY    55  54  96 CALM      30.06R FOG
GLASGOW        LGT RAIN  52  52 100 CALM      30.06R
$$

KYZ024-025-028>034-038-045-046-053-301600-
NORTH CENTRAL KENTUCKY

CITY           SKY/WX    TMP DP  RH WIND       PRES   REMARKS
LOUISVILLE/SDF CLOUDY    58  54  86 S3        30.05R
LOUISVILLE/LOU CLOUDY    58  54  86 S3        30.06R
FORT KNOX      LGT RAIN  54  54 100 E5        30.04R FOG
$$

KYZ035>037-039>044-047>052-055>060-089>105-301600-
NORTHEAST KENTUCKY

CITY           SKY/WX    TMP DP  RH WIND       PRES   REMARKS
LEXINGTON      CLOUDY    55  53  93 SW5       30.06R FOG
COVINGTON      CLOUDY    61  57  87 E3        30.04R
FRANKFORT      CLOUDY    59  52  77 S5        30.04R
$$

KYZ054-064>069-076>088-106>120-301600-
SOUTHEAST KENTUCKY

CITY           SKY/WX    TMP DP  RH WIND       PRES   REMARKS
JACKSON        CLOUDY    53  52  96 VRB5      30.06R FOG
LONDON           N/A     51  49  92 W5        30.07S
SOMERSET       CLOUDY    54  52  94 SW3       30.08S
MIDDLESBORO    SUNNY     58  50  74 CALM      30.07S
MONTICELLO     CLOUDY    55  51  86 W9        30.08F
$$





USA.gov is the U.S. government's official web portal to all federal, state and local government web resources and services.